• In Hungary
  • List of Countries
  • For 7 days
  • Water Temperature
  • Satellite Maps
  • Weather Map
  • News
  • Weather Widgets
  • user-avatar
    Login

    Hourly Weather Kashalya

    Today, 23 September, Sunday

    Time Temperature Precipitation Wind Pressure Humidity
    00:00 +12°C° 0 mm 1 mps 738 mmHg 95%
    01:00 +12°C° 0 mm 1 mps 737 mmHg 96%
    02:00 +12°C° 0 mm 1 mps 738 mmHg 97%
    03:00 +12°C° 0 mm 1 mps 738 mmHg 97%
    04:00 +13°C° 0 mm 1 mps 738 mmHg 98%
    05:00 +13°C° 0 mm 1 mps 738 mmHg 98%
    06:00 +13°C° 0 mm 1 mps 738 mmHg 98%
    07:00 +12°C° 0 mm 0 mps 738 mmHg 98%
    08:00 +15°C° 0 mm 1 mps 738 mmHg 93%
    09:00 +16°C° 0 mm 1 mps 738 mmHg 89%
    10:00 +18°C° 0 mm 1 mps 738 mmHg 84%
    11:00 +19°C° 0 mm 1 mps 738 mmHg 78%
    12:00 +20°C° 0 mm 1 mps 738 mmHg 72%
    13:00 +21°C° 0 mm 1 mps 738 mmHg 66%
    14:00 +21°C° 0 mm 1 mps 738 mmHg 68%
    15:00 +21°C° 0 mm 1 mps 738 mmHg 70%
    16:00 +20°C° 0 mm 1 mps 738 mmHg 71%
    17:00 +19°C° 0 mm 1 mps 738 mmHg 78%
    18:00 +16°C° 0 mm 1 mps 738 mmHg 84%
    19:00 +13°C° 0 mm 0 mps 738 mmHg 91%
    20:00 +14°C° 0 mm 1 mps 738 mmHg 91%
    21:00 +14°C° 0 mm 1 mps 738 mmHg 92%
    22:00 +13°C° 0 mm 1 mps 738 mmHg 93%
    23:00 +13°C° 0 mm 1 mps 738 mmHg 94%

    Tomorrow, 24 September, Monday

    Time Temperature Precipitation Wind Pressure Humidity
    00:00 +13°C° 0 mm 1 mps 738 mmHg 94%
    01:00 +13°C° 0 mm 1 mps 737 mmHg 94%
    02:00 +12°C° 0 mm 1 mps 737 mmHg 94%
    03:00 +12°C° 0 mm 1 mps 737 mmHg 94%
    04:00 +12°C° 0 mm 1 mps 737 mmHg 94%
    05:00 +13°C° 0 mm 2 mps 737 mmHg 94%
    06:00 +13°C° 0 mm 2 mps 737 mmHg 93%
    07:00 +13°C° 0 mm 2 mps 737 mmHg 92%
    08:00 +15°C° 0 mm 2 mps 737 mmHg 86%
    09:00 +17°C° 0 mm 3 mps 737 mmHg 80%
    10:00 +19°C° 0 mm 3 mps 737 mmHg 74%
    11:00 +19°C° 0 mm 4 mps 737 mmHg 69%
    12:00 +20°C° 0 mm 4 mps 736 mmHg 64%
    13:00 +21°C° 0 mm 5 mps 736 mmHg 58%
    14:00 +21°C° 0 mm 4 mps 736 mmHg 59%
    15:00 +21°C° 0 mm 4 mps 736 mmHg 59%
    16:00 +21°C° 0 mm 4 mps 735 mmHg 60%
    17:00 +19°C° 0 mm 3 mps 735 mmHg 65%
    18:00 +17°C° 0 mm 3 mps 735 mmHg 71%
    19:00 +16°C° 0 mm 2 mps 735 mmHg 76%
    20:00 +15°C° 0 mm 2 mps 735 mmHg 76%
    21:00 +14°C° 0 mm 2 mps 735 mmHg 76%
    22:00 +14°C° 0 mm 2 mps 735 mmHg 76%
    23:00 +13°C° 0 mm 2 mps 735 mmHg 76%

    Day after tomorrow, 25 September, Tuesday

    Time Temperature Precipitation Wind Pressure Humidity
    00:00 +13°C° 0 mm 2 mps 735 mmHg 76%
    01:00 +13°C° 0 mm 2 mps 735 mmHg 76%
    02:00 +13°C° 0 mm 2 mps 735 mmHg 74%
    03:00 +13°C° 0 mm 2 mps 735 mmHg 72%
    04:00 +13°C° 0 mm 2 mps 735 mmHg 70%
    05:00 +14°C° 0 mm 2 mps 735 mmHg 67%
    06:00 +14°C° 0 mm 2 mps 734 mmHg 64%
    07:00 +14°C° 0 mm 2 mps 734 mmHg 62%
    08:00 +16°C° 0 mm 3 mps 734 mmHg 57%
    09:00 +18°C° 0 mm 4 mps 734 mmHg 53%
    10:00 +19°C° 0 mm 5 mps 734 mmHg 48%
    11:00 +20°C° 0 mm 5 mps 734 mmHg 48%
    12:00 +21°C° 0 mm 6 mps 734 mmHg 48%
    13:00 +22°C° 0 mm 6 mps 734 mmHg 47%
    14:00 +21°C° 0 mm 5 mps 734 mmHg 51%
    15:00 +21°C° 0 mm 5 mps 734 mmHg 54%
    16:00 +21°C° 0 mm 4 mps 734 mmHg 58%
    17:00 +19°C° 0 mm 3 mps 734 mmHg 64%
    18:00 +17°C° 0 mm 3 mps 734 mmHg 70%
    19:00 +16°C° 0 mm 2 mps 734 mmHg 76%
    20:00 +16°C° 0 mm 2 mps 734 mmHg 75%
    21:00 +15°C° 0 mm 2 mps 734 mmHg 74%
    22:00 +15°C° 0 mm 2 mps 734 mmHg 73%
    23:00 +15°C° 0 mm 2 mps 734 mmHg 72%

    26 September, Wednesday

    Time Temperature Precipitation Wind Pressure Humidity
    00:00 +15°C° 0 mm 2 mps 734 mmHg 72%
    01:00 +13°C° 0 mm 3 mps 734 mmHg 72%
    02:00 +13°C° 0 mm 3 mps 734 mmHg 71%
    03:00 +13°C° 0 mm 3 mps 734 mmHg 71%
    04:00 +13°C° 0 mm 3 mps 734 mmHg 70%
    05:00 +14°C° 0.1 mm 3 mps 734 mmHg 72%
    06:00 +14°C° 0.1 mm 3 mps 734 mmHg 74%
    07:00 +14°C° 0.1 mm 3 mps 734 mmHg 76%
    08:00 +16°C° 0 mm 3 mps 735 mmHg 73%
    09:00 +17°C° 0 mm 3 mps 735 mmHg 70%
    10:00 +18°C° 0 mm 4 mps 735 mmHg 67%
    11:00 +19°C° 0 mm 4 mps 735 mmHg 66%
    12:00 +19°C° 0 mm 4 mps 735 mmHg 66%
    13:00 +19°C° 0 mm 4 mps 736 mmHg 65%
    14:00 +18°C° 0.3 mm 3 mps 736 mmHg 71%
    15:00 +16°C° 0.3 mm 3 mps 736 mmHg 77%
    16:00 +15°C° 0.3 mm 2 mps 736 mmHg 84%
    17:00 +14°C° 0.1 mm 2 mps 736 mmHg 87%
    18:00 +13°C° 0.1 mm 1 mps 736 mmHg 90%
    19:00 +12°C° 0.1 mm 1 mps 736 mmHg 93%
    20:00 +11°C° 0 mm 1 mps 736 mmHg 93%
    21:00 +11°C° 0 mm 1 mps 736 mmHg 94%
    22:00 +9°C° 0 mm 2 mps 736 mmHg 94%
    23:00 +10°C° 0.2 mm 1 mps 736 mmHg 94%

    27 September, Thursday

    Time Temperature Precipitation Wind Pressure Humidity
    00:00 +10°C° 0.2 mm 1 mps 736 mmHg 93%
    01:00 +9°C° 0.2 mm 1 mps 736 mmHg 93%
    02:00 +9°C° 0.7 mm 1 mps 736 mmHg 93%
    03:00 +9°C° 0.7 mm 1 mps 736 mmHg 94%
    04:00 +9°C° 0.7 mm 1 mps 736 mmHg 94%
    05:00 +9°C° 0.2 mm 1 mps 736 mmHg 94%
    06:00 +8°C° 0.2 mm 1 mps 736 mmHg 94%
    07:00 +7°C° 0.2 mm 2 mps 736 mmHg 94%
    08:00 +8°C° 0 mm 2 mps 736 mmHg 88%
    09:00 +9°C° 0 mm 3 mps 736 mmHg 82%
    10:00 +9°C° 0 mm 3 mps 736 mmHg 76%
    11:00 +8°C° 0.1 mm 4 mps 736 mmHg 73%
    12:00 +8°C° 0.1 mm 5 mps 736 mmHg 70%
    13:00 +8°C° 0.1 mm 5 mps 736 mmHg 67%
    14:00 +8°C° 0 mm 5 mps 736 mmHg 63%
    15:00 +8°C° 0 mm 5 mps 735 mmHg 59%
    16:00 +8°C° 0 mm 5 mps 735 mmHg 55%
    17:00 +7°C° 0 mm 4 mps 735 mmHg 59%
    18:00 +5°C° 0 mm 3 mps 735 mmHg 63%
    19:00 +5°C° 0 mm 2 mps 735 mmHg 67%
    20:00 +5°C° 0 mm 3 mps 735 mmHg 66%
    21:00 +5°C° 0 mm 3 mps 735 mmHg 65%
    22:00 +5°C° 0 mm 4 mps 735 mmHg 64%
    23:00 +5°C° 0.1 mm 4 mps 734 mmHg 64%

    28 September, Friday

    Time Temperature Precipitation Wind Pressure Humidity
    00:00 +5°C° 0.1 mm 4 mps 734 mmHg 65%
    01:00 +5°C° 0.1 mm 5 mps 733 mmHg 66%
    02:00 +5°C° 0.1 mm 5 mps 733 mmHg 66%
    03:00 +5°C° 0.1 mm 5 mps 733 mmHg 67%
    04:00 +6°C° 0.1 mm 5 mps 732 mmHg 67%
    05:00 +5°C° 0.6 mm 5 mps 732 mmHg 71%
    06:00 +4°C° 0.6 mm 6 mps 732 mmHg 75%
    07:00 +4°C° 0.6 mm 6 mps 732 mmHg 78%
    08:00 +4°C° 0.5 mm 6 mps 731 mmHg 78%
    09:00 +4°C° 0.5 mm 7 mps 731 mmHg 78%
    10:00 +5°C° 0.5 mm 7 mps 731 mmHg 78%
    11:00 +5°C° 0.1 mm 7 mps 731 mmHg 77%
    12:00 +6°C° 0.1 mm 7 mps 731 mmHg 75%
    13:00 +7°C° 0.1 mm 6 mps 731 mmHg 74%
    14:00 +8°C° 0.1 mm 6 mps 731 mmHg 73%
    15:00 +8°C° 0.1 mm 6 mps 731 mmHg 73%
    16:00 +8°C° 0.1 mm 6 mps 731 mmHg 73%
    17:00 +9°C° 0.1 mm 6 mps 731 mmHg 73%
    18:00 +9°C° 0.1 mm 6 mps 731 mmHg 73%
    19:00 +9°C° 0.1 mm 5 mps 732 mmHg 73%
    20:00 +9°C° 0 mm 5 mps 732 mmHg 76%
    21:00 +8°C° 0 mm 5 mps 733 mmHg 78%
    22:00 +8°C° 0 mm 4 mps 733 mmHg 81%
    23:00 +8°C° 0 mm 4 mps 733 mmHg 82%
    Show more